Location: Claremont
(35.7250°N, 81.1500°W)
Time: 10:15:13
(UTC-05:00)

Daily predictions for brighter satellites

Satellite Brightness Start Highest point End
(mag) Time Altitude Azimuth Time Altitude Azimuth Time Altitude Azimuth
Cosmos 1726 2.5 18:05:26 10° N 18:09:13 73° W 18:12:57 10° S
Cosmos 1125 Rocket 4.1 18:04:11 10° NNW 18:09:20 63° WSW 18:14:27 10° S
Cosmos 2279 Rocket 4.1 18:03:27 10° N 18:09:37 61° E 18:15:46 10° SSE
Cosmos 2333 Rocket 3.9 18:07:07 10° SW 18:12:09 32° WNW 18:17:13 10° N
Cosmos 1461 3.5 18:09:04 10° SW 18:13:12 57° WNW 18:17:15 10° NNE
Cosmos 304 Rocket 3.9 18:08:47 10° SSW 18:13:36 85° WNW 18:18:26 10° NNE
Aureole 1 Rocket 4.4 18:09:23 10° SSE 18:14:14 38° E 18:20:27 10° NNE
Lacrosse 5 rocket 1.7 18:13:06 10° NW 18:16:54 65° SW 18:20:53 10° SSE
CZ-4 R/B 4.5 18:13:52 10° SSE 18:18:01 89° ENE 18:22:10 10° NNW
Tiangong 1 1.8 18:17:19 10° SW 18:20:06 38° SSE 18:22:42 11° E
Cosmos 2278 Rocket 2.9 18:14:57 10° NNW 18:20:33 60° WSW 18:26:06 10° S
Cosmos 1805 Rocket 3.6 18:16:09 10° S 18:20:34 66° E 18:25:00 10° NNE
Cosmos 1242 Rocket 4.4 18:19:52 10° ENE 18:20:42 11° ENE 18:21:32 10° E
Cosmos 1455 3.1 18:19:08 10° NNE 18:22:26 27° ENE 18:25:45 10° SE
Cosmos 1356 Rocket 3.5 18:18:42 10° S 18:22:33 50° E 18:26:26 10° NNE
Nadezhda 4 Rocket 4.2 18:19:36 10° SSE 18:25:34 49° E 18:31:36 10° NNE
SKYMED 2 3.5 18:22:54 10° NNE 18:27:16 77° ESE 18:31:35 10° S
Cosmos 1538 Rocket 4.0 18:23:58 10° SSW 18:29:15 85° ESE 18:34:38 10° NNE
Sich 1 3.2 18:27:03 10° S 18:31:22 54° E 18:35:42 10° NNE
MSX 4.4 18:28:11 10° S 18:33:49 63° WSW 18:39:30 10° NNW
Cosmos 1703 3.4 18:30:51 10° S 18:34:44 80° W 18:38:38 10° N
Milstar 3 4.3 18:29:27 10° W 18:35:31 31° SSW 18:41:25 10° SE
Coronas F rocket 1.6 18:34:06 10° SSE 18:36:17 34° E 18:37:55 15° NNE
Cosmos 923 Rocket 4.4 18:32:17 10° S 18:37:08 41° ESE 18:42:00 10° NNE
Cosmos 2237 Rocket 4.3 18:36:38 10° WSW 18:41:10 25° WNW 18:45:44 10° N
SJ-6B 3.6 18:39:12 10° SE 18:42:51 33° ENE 18:46:35 10° N
Cosmos 1680 Rocket 4.1 18:38:28 10° SSE 18:43:11 35° E 18:47:47 11° NE
Cosmos 1633 Rocket 3.0 18:38:50 10° S 18:43:12 65° E 18:47:33 10° NNE
NOSS 3-1 (C) 4.2 18:42:05 10° SSE 18:46:51 28° ESE 18:50:00 18° ENE
CZ-4 R/B 4.5 18:44:19 10° SW 18:47:01 18° W 18:49:45 10° NW
Cosmos 2369 Rocket 3.7 18:43:52 10° NNE 18:47:04 15° NE 18:47:04 15° NE
Delta 2 Rocket 4.2 18:44:25 10° SSW 18:47:13 25° SSE 18:48:47 18° ESE
Cosmos 1092 Rocket 4.1 18:42:49 10° SSE 18:48:56 54° E 18:55:06 10° NNE
SL-16 R/B 3.1 18:44:40 10° SW 18:50:06 48° WNW 18:55:35 10° N
USA 215 3.9 18:56:43 20° E 19:00:23 35° NNE 19:06:12 10° NNW
Cosmos 773 Rocket 4.2 18:55:29 10° SSW 19:00:37 74° WNW 19:05:51 10° NNE
ALOS 2.9 18:56:31 10° SE 19:00:38 32° ENE 19:04:45 10° N
Meteor 1-28 Rocket 4.3 19:03:05 10° N 19:06:39 44° WNW 19:10:12 10° SSW
METEOR-M 4.0 19:02:47 10° SSE 19:08:07 79° ENE 19:13:30 10° N
BREEZE-M DEB (TANK) 4.1 19:06:09 10° S 19:09:58 40° ESE 19:15:09 23° ENE
Cosmos 1862 Rocket 3.9 19:06:12 10° N 19:10:18 38° E 19:14:20 10° SSE
FENGYUN 3A 3.9 19:05:19 10° SE 19:10:19 42° ENE 19:15:21 10° N
Cosmos 292 Rocket 3.6 19:05:37 10° SSW 19:10:21 81° ESE 19:14:24 14° NNE
Genesis I 3.5 19:08:41 10° S 19:12:24 42° ESE 19:12:42 41° ESE
NOAA 12 4.1 19:07:46 10° SSE 19:13:00 86° WSW 19:18:18 10° NNW
Cosmos 2112 Rocket 3.9 19:14:46 10° S 19:19:56 70° ESE 19:23:17 22° NNE
Cosmos 1869 3.5 19:21:43 10° NNW 19:25:45 71° W 19:29:45 10° S
Cosmos 1943 3.3 19:21:33 10° S 19:27:00 53° ESE 19:28:35 40° ENE
Lacrosse 4 Rocket 1.4 19:26:30 10° NNW 19:30:32 74° WSW 19:33:02 22° SSE
ATLAS 5 CENTAUR R/B 4.2 19:27:43 10° N 19:29:30 15° NNE 19:29:30 15° NNE
Cosmos 1933 Rocket 3.6 19:27:19 10° S 19:31:46 78° W 19:35:24 15° N
Helios 1B rocket 4.4 19:37:10 17° SSE 19:37:10 17° SSE 19:38:12 10° S
Resurs 01 Rocket 1.5 19:31:39 10° SSE 19:36:05 71° ENE 19:40:30 10° N
SL-19 R/B 4.2 19:33:54 10° SSE 19:39:48 90° ESE 19:45:26 10° NNW
Cosmos 1417 Rocket 4.5 19:34:43 10° N 19:40:44 52° E 19:46:40 10° SSE
H-2A ROCKET BODY 3.2 19:22:13 10° W 19:43:08 54° SSW 19:45:25 36° SE
Iridium 4 Rocket 4.4 19:44:32 10° SSW 19:48:43 38° W 19:52:41 10° NNW
Cosmos 1943 Rocket 4.4 19:44:22 10° N 19:44:33 11° N 19:44:33 11° N
Cosmos 1655 Rocket 3.9 19:43:37 10° S 19:49:59 82° E 19:56:22 10° N
Spot 2 Rocket 3.4 19:45:16 10° SSE 19:50:19 86° WSW 19:55:23 10° NNW
Cosmos 1242 Rocket 4.3 19:52:41 10° NNW 19:55:49 31° W 19:58:55 10° SSW
Tiangong 1 3.9 19:53:26 10° W 19:54:18 16° WNW 19:54:18 16° WNW
CZ-4C R/B 4.4 19:53:53 10° N 19:56:23 17° NNE 19:56:23 17° NNE
NOSS 3-1 (A) 3.1 19:54:14 10° SSW 19:59:55 81° ESE 20:00:05 80° E
Cosmos 2369 Rocket 3.6 20:26:05 10° NNW 20:28:56 31° NNW 20:28:56 31° NNW
NOSS 3-1 (C) 4.4 20:31:57 10° WSW 20:37:21 40° NW 20:37:29 40° NW
USA 215 3.6 20:44:05 59° W 20:44:05 59° W 20:49:36 10° NW
